| time (UTC) | temp F | wind direction | speed MPH | gust MPH | rain 1hr in | rain 24hr in | rain mn in | humidity % | barometer mb |
| 20260906234521 | 86 | 167 | 1.0 | 5.0 | 0.00 | 0.01 | 0.01 | 71 | 1011.1 |
| 20260906234021 | 86 | 167 | 1.0 | 5.0 | 0.00 | 0.01 | 0.01 | 71 | 1011.1 |
| 20260906233521 | 86 | 151 | 1.0 | 3.0 | 0.00 | 0.01 | 0.01 | 72 | 1011.0 |
| 20260906233020 | 86 | 151 | 0.0 | 3.0 | 0.00 | 0.01 | 0.01 | 73 | 1011.0 |
| 20260906232523 | 86 | 148 | 1.0 | 3.0 | 0.00 | 0.01 | 0.01 | 74 | 1011.2 |
| 20260906232019 | 86 | 71 | 1.0 | 2.0 | 0.00 | 0.01 | 0.01 | 74 | 1011.3 |
| 20260906231518 | 85 | 69 | 1.0 | 3.0 | 0.00 | 0.01 | 0.01 | 75 | 1011.2 |
| 20260906231018 | 85 | 69 | 1.0 | 3.0 | 0.00 | 0.01 | 0.01 | 76 | 1011.3 |
| 20260906230518 | 85 | 158 | 0.0 | 2.0 | 0.00 | 0.01 | 0.01 | 76 | 1011.3 |
| 20260906230018 | 85 | 158 | 0.0 | 3.0 | 0.00 | 0.01 | 0.01 | 75 | 1011.1 |
| 20260906225521 | 85 | 158 | 1.0 | 3.0 | 0.00 | 0.01 | 0.01 | 75 | 1011.3 |
| 20260906225017 | 85 | 87 | 2.0 | 4.0 | 0.00 | 0.01 | 0.01 | 75 | 1011.3 |
| 20260906224516 | 85 | 81 | 1.0 | 4.0 | 0.00 | 0.01 | 0.01 | 75 | 1011.4 |
| 20260906224017 | 85 | 92 | 1.0 | 3.0 | 0.00 | 0.01 | 0.01 | 75 | 1011.6 |
| 20260906223514 | 85 | 138 | 2.0 | 4.0 | 0.00 | 0.01 | 0.01 | 75 | 1011.6 |
| 20260906223020 | 85 | 138 | 2.0 | 4.0 | 0.00 | 0.01 | 0.01 | 75 | 1011.7 |
| 20260906222513 | 85 | 157 | 1.0 | 3.0 | 0.00 | 0.01 | 0.01 | 74 | 1011.8 |
| 20260906222013 | 85 | 161 | 1.0 | 3.0 | 0.00 | 0.01 | 0.01 | 76 | 1011.8 |
| 20260906221518 | 85 | 161 | 1.0 | 3.0 | 0.00 | 0.01 | 0.01 | 75 | 1011.8 |
| 20260906221012 | 85 | 161 | 1.0 | 4.0 | 0.00 | 0.01 | 0.01 | 75 | 1011.9 |
| 20260906220512 | 85 | 168 | 1.0 | 4.0 | 0.00 | 0.01 | 0.01 | 74 | 1011.9 |
| 20260906220030 | 84 | 112 | 1.0 | 3.0 | 0.00 | 0.01 | 0.01 | 76 | 1012.0 |
| 20260906215516 | 85 | 111 | 1.0 | 3.0 | 0.00 | 0.24 | 0.01 | 76 | 1012.1 |
| 20260906215012 | 85 | 111 | 1.0 | 3.0 | 0.00 | 0.24 | 0.01 | 77 | 1012.2 |
| 20260906214518 | 85 | 122 | 2.0 | 5.0 | 0.00 | 0.24 | 0.01 | 75 | 1012.3 |
| 20260906214011 | 85 | 157 | 1.0 | 6.0 | 0.00 | 0.24 | 0.01 | 74 | 1012.3 |
| 20260906213511 | 85 | 168 | 1.0 | 6.0 | 0.00 | 0.24 | 0.01 | 74 | 1012.5 |
| 20260906213013 | 85 | 134 | 2.0 | 3.0 | 0.00 | 0.24 | 0.01 | 73 | 1012.4 |
| 20260906212511 | 85 | 136 | 1.0 | 3.0 | 0.00 | 0.24 | 0.01 | 72 | 1012.5 |
| 20260906212011 | 85 | 76 | 1.0 | 3.0 | 0.00 | 0.24 | 0.01 | 71 | 1012.6 |
| 20260906211511 | 85 | 76 | 1.0 | 3.0 | 0.00 | 0.24 | 0.01 | 71 | 1012.6 |
| 20260906211015 | 85 | 76 | 1.0 | 3.0 | 0.00 | 0.24 | 0.01 | 71 | 1012.6 |
| 20260906210512 | 85 | 247 | 0.0 | 2.0 | 0.00 | 0.24 | 0.01 | 72 | 1012.6 |
| 20260906210013 | 85 | 247 | 0.0 | 2.0 | 0.01 | 0.24 | 0.01 | 73 | 1012.6 |
| 20260906205510 | 84 | 159 | 0.0 | 5.0 | 0.01 | 0.85 | 0.01 | 74 | 1012.7 |
| 20260906205011 | 84 | 159 | 1.0 | 5.0 | 0.01 | 0.85 | 0.01 | 75 | 1012.9 |
| 20260906204510 | 84 | 174 | 0.0 | 4.0 | 0.01 | 0.85 | 0.01 | 77 | 1013.0 |
| 20260906204009 | 83 | 194 | 0.0 | 2.0 | 0.01 | 0.85 | 0.01 | 79 | 1013.0 |
| 20260906203509 | 83 | 182 | 1.0 | 2.0 | 0.01 | 0.85 | 0.01 | 80 | 1013.1 |
| 20260906203011 | 82 | 184 | 0.0 | 5.0 | 0.01 | 0.85 | 0.01 | 81 | 1013.1 |
| 20260906202508 | 82 | 184 | 2.0 | 5.0 | 0.01 | 0.85 | 0.01 | 82 | 1012.9 |
| 20260906202012 | 81 | 190 | 0.0 | 4.0 | 0.01 | 0.85 | 0.01 | 84 | 1012.9 |
| 20260906201509 | 81 | 167 | 1.0 | 7.0 | 0.01 | 0.85 | 0.01 | 86 | 1013.0 |
| 20260906201008 | 81 | 202 | 1.0 | 7.0 | 0.01 | 0.85 | 0.01 | 85 | 1013.0 |
| 20260906200508 | 81 | 163 | 2.0 | 5.0 | 0.00 | 0.84 | 0.00 | 84 | 1012.9 |
| 20260906200009 | 80 | 156 | 1.0 | 6.0 | 0.00 | 0.84 | 0.00 | 84 | 1012.8 |
| 20260906195508 | 80 | 182 | 2.0 | 5.0 | 0.00 | 0.84 | 0.00 | 85 | 1012.9 |
| 20260906195009 | 80 | 186 | 1.0 | 2.0 | 0.00 | 0.84 | 0.00 | 86 | 1013.0 |
| 20260906194516 | 80 | 188 | 0.0 | 4.0 | 0.00 | 0.84 | 0.00 | 86 | 1013.2 |
| 20260906194009 | 79 | 188 | 1.0 | 4.0 | 0.00 | 0.84 | 0.00 | 86 | 1013.4 |
| 20260906193507 | 79 | 205 | 1.0 | 5.0 | 0.00 | 0.84 | 0.00 | 86 | 1013.6 |
| 20260906193009 | 79 | 155 | 3.0 | 5.0 | 0.00 | 0.84 | 0.00 | 85 | 1013.7 |
| 20260906192507 | 79 | 107 | 2.0 | 5.0 | 0.00 | 0.84 | 0.00 | 84 | 1013.9 |
| 20260906192007 | 80 | 104 | 3.0 | 6.0 | 0.00 | 0.84 | 0.00 | 81 | 1014.0 |
| 20260906191507 | 81 | 184 | 1.0 | 4.0 | 0.00 | 0.84 | 0.00 | 80 | 1014.4 |
| 20260906191006 | 81 | 192 | 0.0 | 8.0 | 0.00 | 0.84 | 0.00 | 78 | 1014.3 |
| 20260906190507 | 81 | 175 | 1.0 | 9.0 | 0.00 | 0.84 | 0.00 | 78 | 1014.4 |
| 20260906190010 | 82 | 128 | 2.0 | 9.0 | 0.00 | 0.84 | 0.00 | 77 | 1014.6 |
| 20260906185509 | 82 | 227 | 3.0 | 11.0 | 0.00 | 0.84 | 0.00 | 77 | 1014.6 |
| 20260906185006 | 83 | 288 | 1.0 | 11.0 | 0.00 | 0.84 | 0.00 | 74 | 1014.6 |
| 20260906184506 | 84 | 184 | 3.0 | 12.0 | 0.00 | 0.84 | 0.00 | 72 | 1014.4 |
| 20260906184005 | 85 | 188 | 2.0 | 12.0 | 0.00 | 0.84 | 0.00 | 72 | 1014.6 |
| 20260906183505 | 85 | 154 | 3.0 | 17.0 | 0.00 | 0.84 | 0.00 | 71 | 1014.6 |
| 20260906183007 | 86 | 203 | 5.0 | 17.0 | 0.00 | 0.84 | 0.00 | 69 | 1014.3 |
| 20260906182504 | 88 | 236 | 4.0 | 10.0 | 0.00 | 0.84 | 0.00 | 66 | 1014.2 |
| 20260906182007 | 90 | 160 | 1.0 | 5.0 | 0.00 | 0.84 | 0.00 | 59 | 1014.2 |
| 20260906181509 | 90 | 72 | 2.0 | 5.0 | 0.00 | 0.84 | 0.00 | 58 | 1014.2 |
| 20260906181004 | 91 | 137 | 2.0 | 4.0 | 0.00 | 0.84 | 0.00 | 58 | 1014.0 |
| 20260906180504 | 91 | 61 | 2.0 | 4.0 | 0.00 | 0.84 | 0.00 | 57 | 1013.9 |
| 20260906180003 | 92 | 84 | 2.0 | 6.0 | 0.00 | 0.84 | 0.00 | 58 | 1013.8 |
| 20260906175503 | 92 | 49 | 3.0 | 6.0 | 0.00 | 0.84 | 0.00 | 57 | 1014.0 |
| 20260906175003 | 94 | 36 | 2.0 | 4.0 | 0.00 | 0.84 | 0.00 | 54 | 1014.0 |
| 20260906174502 | 95 | 94 | 0.0 | 5.0 | 0.00 | 0.84 | 0.00 | 53 | 1013.8 |
| 20260906174003 | 94 | 317 | 1.0 | 5.0 | 0.00 | 0.84 | 0.00 | 53 | 1013.9 |
| 20260906173502 | 94 | 69 | 2.0 | 5.0 | 0.00 | 0.84 | 0.00 | 53 | 1013.9 |
| 20260906173001 | 94 | 360 | 2.0 | 5.0 | 0.00 | 0.84 | 0.00 | 52 | 1014.0 |
| 20260906172501 | 95 | 76 | 2.0 | 6.0 | 0.00 | 0.84 | 0.00 | 52 | 1014.1 |
| 20260906172000 | 95 | 27 | 2.0 | 6.0 | 0.00 | 0.84 | 0.00 | 50 | 1014.2 |
| 20260906171601 | 96 | 90 | 3.0 | 9.0 | 0.00 | 0.84 | 0.00 | 49 | 1014.3 |
| 20260906171100 | 97 | 338 | 3.0 | 9.0 | 0.00 | 0.84 | 0.00 | 50 | 1014.3 |
| 20260906170559 | 97 | 20 | 3.0 | 8.0 | 0.00 | 0.84 | 0.00 | 49 | 1014.4 |
| 20260906170100 | 97 | 5 | 4.0 | 7.0 | 0.00 | 0.84 | 0.00 | 51 | 1014.4 |
| 20260906165600 | 98 | 40 | 3.0 | 11.0 | 0.00 | 0.84 | 0.00 | 50 | 1014.3 |
| 20260906165059 | 98 | 307 | 3.0 | 11.0 | 0.00 | 0.84 | 0.00 | 50 | 1014.2 |
| 20260906164559 | 98 | 21 | 3.0 | 9.0 | 0.00 | 0.84 | 0.00 | 50 | 1014.3 |
| 20260906164058 | 97 | 334 | 2.0 | 10.0 | 0.00 | 0.84 | 0.00 | 52 | 1014.4 |
| 20260906163559 | 97 | 327 | 3.0 | 10.0 | 0.00 | 0.84 | 0.00 | 49 | 1014.4 |
| 20260906163104 | 98 | 324 | 2.0 | 8.0 | 0.00 | 0.84 | 0.00 | 50 | 1014.4 |
| 20260906162557 | 98 | 321 | 4.0 | 8.0 | 0.00 | 0.84 | 0.00 | 53 | 1014.4 |
| 20260906162058 | 97 | 295 | 3.0 | 8.0 | 0.00 | 0.84 | 0.00 | 51 | 1014.6 |
| 20260906161605 | 96 | 311 | 2.0 | 8.0 | 0.00 | 0.84 | 0.00 | 54 | 1014.5 |
| 20260906161054 | 96 | 336 | 3.0 | 8.0 | 0.00 | 0.84 | 0.00 | 56 | 1014.5 |
| 20260906160554 | 95 | 296 | 2.0 | 5.0 | 0.00 | 0.84 | 0.00 | 63 | 1014.4 |
| 20260906160054 | 94 | 296 | 2.0 | 7.0 | 0.00 | 0.84 | 0.00 | 59 | 1014.3 |
| 20260906155553 | 93 | 342 | 1.0 | 7.0 | 0.00 | 0.84 | 0.00 | 58 | 1014.4 |
| 20260906155055 | 94 | 346 | 2.0 | 5.0 | 0.00 | 0.84 | 0.00 | 57 | 1014.5 |
| 20260906154553 | 95 | 320 | 1.0 | 5.0 | 0.00 | 0.84 | 0.00 | 56 | 1014.5 |
| 20260906154053 | 96 | 309 | 1.0 | 10.0 | 0.00 | 0.84 | 0.00 | 55 | 1014.5 |
| 20260906153551 | 97 | 310 | 3.0 | 10.0 | 0.00 | 0.84 | 0.00 | 56 | 1014.4 |
| 20260906153051 | 95 | 221 | 1.0 | 4.0 | 0.00 | 0.84 | 0.00 | 58 | 1014.3 |
| 20260906152550 | 94 | 99 | 1.0 | 3.0 | 0.00 | 0.84 | 0.00 | 60 | 1014.3 |
| 20260906152051 | 96 | 65 | 0.0 | 3.0 | 0.00 | 0.84 | 0.00 | 59 | 1014.2 |
| 20260906151550 | 95 | 329 | 2.0 | 3.0 | 0.00 | 0.84 | 0.00 | 62 | 1014.2 |
| 20260906151047 | 94 | 227 | 0.0 | 3.0 | 0.00 | 0.84 | 0.00 | 64 | 1014.2 |
| 20260906150549 | 93 | 212 | 1.0 | 3.0 | 0.00 | 0.84 | 0.00 | 65 | 1014.2 |
| 20260906150045 | 93 | 211 | 0.0 | 2.0 | 0.00 | 0.84 | 0.00 | 67 | 1014.1 |
| 20260906145543 | 92 | 211 | 1.0 | 2.0 | 0.00 | 0.84 | 0.00 | 69 | 1014.2 |
| 20260906145041 | 91 | 138 | 0.0 | 3.0 | 0.00 | 0.84 | 0.00 | 70 | 1014.3 |
| 20260906144540 | 90 | 138 | 1.0 | 3.0 | 0.00 | 0.84 | 0.00 | 72 | 1014.2 |
| 20260906144041 | 90 | 139 | 1.0 | 4.0 | 0.00 | 0.84 | 0.00 | 73 | 1014.2 |
| 20260906143537 | 88 | 139 | 1.0 | 4.0 | 0.00 | 0.84 | 0.00 | 76 | 1014.3 |
| 20260906143042 | 88 | 126 | 1.0 | 3.0 | 0.00 | 0.84 | 0.00 | 76 | 1014.3 |
| 20260906142535 | 86 | 38 | 1.0 | 4.0 | 0.00 | 0.84 | 0.00 | 78 | 1014.3 |
| 20260906142034 | 86 | 37 | 1.0 | 4.0 | 0.00 | 0.84 | 0.00 | 79 | 1014.2 |
| 20260906141533 | 85 | 168 | 1.0 | 3.0 | 0.00 | 0.84 | 0.00 | 80 | 1014.2 |
| 20260906141033 | 85 | 168 | 1.0 | 3.0 | 0.00 | 0.84 | 0.00 | 80 | 1014.2 |
| 20260906140532 | 85 | 168 | 1.0 | 3.0 | 0.00 | 0.84 | 0.00 | 79 | 1014.2 |
| 20260906140031 | 85 | 168 | 0.0 | 3.0 | 0.00 | 0.84 | 0.00 | 80 | 1014.3 |
| 20260906135530 | 85 | 168 | 1.0 | 3.0 | 0.00 | 0.84 | 0.00 | 80 | 1014.2 |
| 20260906135029 | 85 | 168 | 0.0 | 3.0 | 0.00 | 0.84 | 0.00 | 81 | 1014.0 |
| 20260906134528 | 84 | 168 | 1.0 | 5.0 | 0.00 | 0.84 | 0.00 | 81 | 1014.0 |
| 20260906134028 | 84 | 168 | 1.0 | 5.0 | 0.00 | 0.84 | 0.00 | 81 | 1014.1 |
| 20260906133528 | 84 | 168 | 0.0 | 3.0 | 0.00 | 0.84 | 0.00 | 82 | 1014.1 |
| 20260906133035 | 83 | 168 | 0.0 | 2.0 | 0.00 | 0.84 | 0.00 | 84 | 1014.0 |
| 20260906132524 | 83 | 168 | 0.0 | 2.0 | 0.00 | 0.84 | 0.00 | 85 | 1014.0 |
| 20260906132023 | 82 | 168 | 0.0 | 2.0 | 0.00 | 0.84 | 0.00 | 87 | 1013.9 |
| 20260906131521 | 81 | 168 | 1.0 | 2.0 | 0.00 | 0.84 | 0.00 | 89 | 1013.9 |
| 20260906131020 | 80 | 168 | 0.0 | 2.0 | 0.00 | 0.84 | 0.00 | 90 | 1013.8 |
| 20260906130524 | 80 | 168 | 0.0 | 2.0 | 0.00 | 0.84 | 0.00 | 92 | 1013.7 |
| 20260906130018 | 79 | 168 | 0.0 | 1.0 | 0.00 | 0.84 | 0.00 | 93 | 1013.5 |
| 20260906125518 | 79 | 168 | 0.0 | 1.0 | 0.00 | 0.84 | 0.00 | 93 | 1013.5 |
| 20260906125017 | 78 | 168 | 0.0 | 1.0 | 0.00 | 0.84 | 0.00 | 92 | 1013.5 |
| 20260906124516 | 78 | 168 | 0.0 | 1.0 | 0.00 | 0.84 | 0.00 | 92 | 1013.5 |
| 20260906124016 | 78 | 168 | 0.0 | 1.0 | 0.00 | 0.84 | 0.00 | 92 | 1013.5 |
| 20260906123516 | 78 | 168 | 0.0 | 1.0 | 0.00 | 0.84 | 0.00 | 92 | 1013.4 |
| 20260906123021 | 78 | 168 | 0.0 | 2.0 | 0.00 | 0.84 | 0.00 | 92 | 1013.4 |
| 20260906122514 | 78 | 168 | 0.0 | 2.0 | 0.00 | 0.84 | 0.00 | 92 | 1013.3 |
| 20260906122012 | 78 | 168 | 0.0 | 1.0 | 0.00 | 0.84 | 0.00 | 92 | 1013.2 |
| 20260906121512 | 78 | 168 | 0.0 | 1.0 | 0.00 | 0.84 | 0.00 | 92 | 1013.0 |
| 20260906121011 | 78 | 168 | 0.0 | 0.0 | 0.00 | 0.84 | 0.00 | 92 | 1012.9 |
| 20260906120510 | 78 | 168 | 0.0 | 1.0 | 0.00 | 0.84 | 0.00 | 92 | 1012.8 |
| 20260906120011 | 78 | 168 | 0.0 | 1.0 | 0.00 | 0.84 | 0.00 | 92 | 1012.8 |
| 20260906115511 | 78 | 168 | 0.0 | 1.0 | 0.00 | 0.84 | 0.00 | 92 | 1012.7 |
| 20260906115011 | 78 | 168 | 0.0 | 1.0 | 0.00 | 0.84 | 0.00 | 92 | 1012.7 |
| 20260906114529 | 78 | 168 | 0.0 | 1.0 | 0.00 | 0.84 | 0.00 | 92 | 1012.7 |
| 20260906114008 | 78 | 168 | 0.0 | 1.0 | 0.00 | 0.84 | 0.00 | 91 | 1012.6 |
| 20260906113509 | 78 | 168 | 0.0 | 1.0 | 0.00 | 0.84 | 0.00 | 92 | 1012.6 |
| 20260906113009 | 78 | 168 | 0.0 | 1.0 | 0.00 | 0.84 | 0.00 | 91 | 1012.5 |
| 20260906112510 | 78 | 168 | 0.0 | 1.0 | 0.00 | 0.84 | 0.00 | 91 | 1012.4 |
| 20260906112008 | 78 | 168 | 0.0 | 1.0 | 0.00 | 0.84 | 0.00 | 91 | 1012.5 |
| 20260906111517 | 78 | 168 | 0.0 | 1.0 | 0.00 | 0.84 | 0.00 | 91 | 1012.5 |
| 20260906111007 | 78 | 168 | 0.0 | 1.0 | 0.00 | 0.84 | 0.00 | 91 | 1012.6 |
| 20260906110510 | 78 | 168 | 0.0 | 1.0 | 0.00 | 0.84 | 0.00 | 91 | 1012.6 |
| 20260906110009 | 78 | 168 | 0.0 | 1.0 | 0.00 | 0.84 | 0.00 | 90 | 1012.6 |
| 20260906105509 | 78 | 168 | 0.0 | 0.0 | 0.00 | 0.84 | 0.00 | 90 | 1012.6 |
| 20260906105007 | 78 | 168 | 0.0 | 0.0 | 0.00 | 0.84 | 0.00 | 90 | 1012.6 |
| 20260906104510 | 78 | 168 | 0.0 | 0.0 | 0.00 | 0.84 | 0.00 | 90 | 1012.5 |
| 20260906104006 | 78 | 168 | 0.0 | 0.0 | 0.00 | 0.84 | 0.00 | 90 | 1012.4 |
| 20260906103505 | 78 | 168 | 0.0 | 0.0 | 0.00 | 0.84 | 0.00 | 90 | 1012.5 |
| 20260906103005 | 78 | 168 | 0.0 | 0.0 | 0.00 | 0.84 | 0.00 | 90 | 1012.4 |
| 20260906102505 | 78 | 168 | 0.0 | 0.0 | 0.00 | 0.84 | 0.00 | 90 | 1012.3 |
| 20260906102005 | 78 | 168 | 0.0 | 0.0 | 0.00 | 0.84 | 0.00 | 90 | 1012.3 |
| 20260906101505 | 78 | 168 | 0.0 | 1.0 | 0.00 | 0.84 | 0.00 | 90 | 1012.3 |
| 20260906101004 | 79 | 168 | 0.0 | 1.0 | 0.00 | 0.84 | 0.00 | 91 | 1012.3 |
| 20260906100504 | 79 | 168 | 0.0 | 1.0 | 0.00 | 0.84 | 0.00 | 90 | 1012.2 |
| 20260906100004 | 79 | 168 | 0.0 | 1.0 | 0.00 | 0.84 | 0.00 | 90 | 1012.2 |
| 20260906095506 | 79 | 168 | 0.0 | 1.0 | 0.00 | 0.84 | 0.00 | 90 | 1012.2 |
| 20260906095004 | 79 | 168 | 0.0 | 1.0 | 0.00 | 0.84 | 0.00 | 90 | 1012.2 |
| 20260906094502 | 79 | 168 | 0.0 | 1.0 | 0.00 | 0.84 | 0.00 | 90 | 1012.0 |
| 20260906094002 | 79 | 168 | 0.0 | 1.0 | 0.00 | 0.84 | 0.00 | 90 | 1012.0 |
| 20260906093502 | 79 | 168 | 0.0 | 1.0 | 0.00 | 0.84 | 0.00 | 90 | 1011.9 |
| 20260906093002 | 79 | 168 | 0.0 | 1.0 | 0.00 | 0.84 | 0.00 | 90 | 1011.9 |
| 20260906092502 | 79 | 168 | 0.0 | 1.0 | 0.00 | 0.84 | 0.00 | 90 | 1011.9 |
| 20260906092002 | 79 | 168 | 0.0 | 1.0 | 0.00 | 0.84 | 0.00 | 90 | 1011.9 |
| 20260906091504 | 79 | 168 | 0.0 | 1.0 | 0.00 | 0.84 | 0.00 | 90 | 1011.9 |
| 20260906091001 | 79 | 168 | 0.0 | 1.0 | 0.00 | 0.84 | 0.00 | 90 | 1011.9 |
| 20260906090500 | 79 | 168 | 0.0 | 2.0 | 0.00 | 0.84 | 0.00 | 90 | 1011.9 |
| 20260906090109 | 79 | 168 | 0.0 | 2.0 | 0.00 | 0.84 | 0.00 | 90 | 1012.0 |
| 20260906085559 | 79 | 168 | 0.0 | 2.0 | 0.00 | 0.84 | 0.00 | 89 | 1012.0 |
| 20260906085100 | 79 | 168 | 0.0 | 1.0 | 0.00 | 0.84 | 0.00 | 89 | 1012.0 |
| 20260906084559 | 79 | 168 | 0.0 | 1.0 | 0.00 | 0.84 | 0.00 | 89 | 1011.9 |
| 20260906084100 | 79 | 168 | 0.0 | 1.0 | 0.00 | 0.84 | 0.00 | 89 | 1011.9 |
| 20260906083559 | 79 | 168 | 0.0 | 1.0 | 0.00 | 0.84 | 0.00 | 89 | 1011.9 |
| 20260906083059 | 79 | 168 | 0.0 | 1.0 | 0.00 | 0.84 | 0.00 | 89 | 1012.0 |
| 20260906082558 | 79 | 168 | 0.0 | 1.0 | 0.00 | 0.84 | 0.00 | 89 | 1011.9 |
| 20260906082058 | 79 | 168 | 0.0 | 1.0 | 0.00 | 0.84 | 0.00 | 89 | 1011.9 |
| 20260906081601 | 79 | 168 | 0.0 | 1.0 | 0.00 | 0.84 | 0.00 | 89 | 1011.8 |
| 20260906081057 | 79 | 168 | 0.0 | 1.0 | 0.00 | 0.84 | 0.00 | 89 | 1011.9 |
| 20260906080558 | 79 | 168 | 0.0 | 1.0 | 0.00 | 0.84 | 0.00 | 89 | 1011.9 |
| 20260906080103 | 79 | 168 | 0.0 | 1.0 | 0.00 | 0.84 | 0.00 | 88 | 1012.0 |
| 20260906075556 | 79 | 168 | 0.0 | 1.0 | 0.00 | 0.84 | 0.00 | 88 | 1012.0 |
| 20260906075056 | 79 | 168 | 0.0 | 0.0 | 0.00 | 0.84 | 0.00 | 88 | 1012.1 |
| 20260906074556 | 79 | 168 | 0.0 | 1.0 | 0.00 | 0.84 | 0.00 | 88 | 1012.0 |
| 20260906074055 | 79 | 168 | 0.0 | 1.0 | 0.00 | 0.84 | 0.00 | 88 | 1012.0 |
| 20260906073554 | 79 | 168 | 0.0 | 1.0 | 0.00 | 0.84 | 0.00 | 88 | 1012.2 |
| 20260906073054 | 79 | 168 | 0.0 | 1.0 | 0.00 | 0.84 | 0.00 | 88 | 1012.2 |
| 20260906072554 | 80 | 168 | 0.0 | 1.0 | 0.00 | 0.84 | 0.00 | 88 | 1012.2 |
| 20260906072053 | 80 | 168 | 0.0 | 1.0 | 0.00 | 0.84 | 0.00 | 88 | 1012.3 |
| 20260906071554 | 80 | 168 | 0.0 | 2.0 | 0.00 | 0.84 | 0.00 | 87 | 1012.3 |
| 20260906071052 | 80 | 168 | 0.0 | 2.0 | 0.00 | 0.84 | 0.00 | 87 | 1012.3 |
| 20260906070552 | 80 | 168 | 0.0 | 1.0 | 0.00 | 0.84 | 0.00 | 87 | 1012.3 |
| 20260906070051 | 80 | 168 | 0.0 | 1.0 | 0.00 | 0.84 | 0.00 | 87 | 1012.4 |
| 20260906065553 | 80 | 168 | 0.0 | 1.0 | 0.00 | 0.84 | 0.00 | 87 | 1012.5 |
| 20260906065051 | 80 | 168 | 0.0 | 1.0 | 0.00 | 0.84 | 0.00 | 87 | 1012.6 |
| 20260906064550 | 80 | 168 | 0.0 | 1.0 | 0.00 | 0.84 | 0.00 | 87 | 1012.6 |
| 20260906064049 | 80 | 168 | 0.0 | 1.0 | 0.00 | 0.84 | 0.00 | 87 | 1012.5 |
| 20260906063552 | 80 | 168 | 0.0 | 1.0 | 0.00 | 0.84 | 0.00 | 87 | 1012.5 |
| 20260906063050 | 80 | 168 | 0.0 | 1.0 | 0.00 | 0.84 | 0.00 | 87 | 1012.4 |
| 20260906062553 | 80 | 168 | 0.0 | 2.0 | 0.00 | 0.84 | 0.00 | 87 | 1012.4 |
| 20260906062049 | 80 | 168 | 0.0 | 2.0 | 0.00 | 0.84 | 0.00 | 87 | 1012.5 |
| 20260906061549 | 80 | 168 | 0.0 | 2.0 | 0.00 | 0.84 | 0.00 | 87 | 1012.4 |
| 20260906061048 | 80 | 168 | 0.0 | 2.0 | 0.00 | 0.84 | 0.00 | 87 | 1012.4 |
| 20260906060548 | 80 | 168 | 0.0 | 2.0 | 0.00 | 0.84 | 0.00 | 87 | 1012.5 |
| 20260906060115 | 80 | 168 | 0.0 | 1.0 | 0.00 | 0.84 | 0.00 | 87 | 1012.5 |
| 20260906055047 | 80 | 168 | 0.0 | 3.0 | 0.00 | 0.84 | 0.00 | 87 | 1012.5 |
| 20260906054545 | 80 | 168 | 0.0 | 3.0 | 0.00 | 0.84 | 0.00 | 86 | 1012.4 |
| 20260906054045 | 80 | 168 | 0.0 | 2.0 | 0.00 | 0.84 | 0.00 | 86 | 1012.4 |
| 20260906053545 | 80 | 168 | 0.0 | 2.0 | 0.00 | 0.84 | 0.00 | 86 | 1012.5 |
| 20260906053045 | 80 | 168 | 0.0 | 3.0 | 0.00 | 0.84 | 0.00 | 86 | 1012.4 |
| 20260906052544 | 80 | 168 | 0.0 | 3.0 | 0.00 | 0.84 | 0.00 | 86 | 1012.5 |
| 20260906052044 | 80 | 168 | 0.0 | 2.0 | 0.00 | 0.84 | 0.00 | 86 | 1012.6 |
| 20260906051543 | 80 | 168 | 0.0 | 2.0 | 0.00 | 0.84 | 0.00 | 86 | 1012.6 |
| 20260906051045 | 80 | 168 | 0.0 | 3.0 | 0.00 | 0.84 | 0.00 | 86 | 1012.6 |
| 20260906050542 | 80 | 168 | 1.0 | 3.0 | 0.00 | 0.84 | 0.00 | 86 | 1012.6 |
| 20260906050041 | 80 | 168 | 1.0 | 3.0 | 0.00 | 0.84 | 0.00 | 86 | 1012.6 |
| 20260906045541 | 80 | 168 | 0.0 | 2.0 | 0.00 | 0.84 | 0.84 | 86 | 1012.6 |
| 20260906045041 | 80 | 168 | 0.0 | 2.0 | 0.00 | 0.84 | 0.84 | 86 | 1012.7 |
| 20260906044543 | 80 | 168 | 0.0 | 2.0 | 0.00 | 0.84 | 0.84 | 86 | 1012.7 |
| 20260906044044 | 80 | 168 | 0.0 | 2.0 | 0.00 | 0.84 | 0.84 | 85 | 1012.7 |
| 20260906043540 | 80 | 168 | 0.0 | 3.0 | 0.00 | 0.84 | 0.84 | 85 | 1012.6 |
| 20260906043041 | 80 | 168 | 0.0 | 3.0 | 0.00 | 0.84 | 0.84 | 85 | 1012.6 |
| 20260906042541 | 80 | 168 | 0.0 | 3.0 | 0.00 | 0.84 | 0.84 | 85 | 1012.5 |
| 20260906042040 | 80 | 168 | 0.0 | 5.0 | 0.00 | 0.84 | 0.84 | 85 | 1012.5 |
| 20260906041541 | 80 | 168 | 0.0 | 5.0 | 0.00 | 0.84 | 0.84 | 85 | 1012.7 |
| 20260906041040 | 80 | 164 | 1.0 | 5.0 | 0.00 | 0.84 | 0.84 | 85 | 1012.6 |
| 20260906040540 | 80 | 161 | 1.0 | 3.0 | 0.00 | 0.84 | 0.84 | 85 | 1012.7 |
| 20260906040042 | 81 | 161 | 1.0 | 2.0 | 0.00 | 0.84 | 0.84 | 85 | 1012.8 |
| 20260906035541 | 81 | 161 | 0.0 | 5.0 | 0.00 | 0.84 | 0.84 | 84 | 1012.7 |
| 20260906035039 | 81 | 161 | 0.0 | 5.0 | 0.00 | 0.84 | 0.84 | 84 | 1012.8 |
| 20260906034546 | 81 | 161 | 1.0 | 3.0 | 0.00 | 0.84 | 0.84 | 84 | 1012.8 |
| 20260906034038 | 80 | 161 | 0.0 | 2.0 | 0.00 | 0.84 | 0.84 | 85 | 1012.8 |
| 20260906033538 | 81 | 161 | 0.0 | 2.0 | 0.00 | 0.84 | 0.84 | 85 | 1012.7 |
| 20260906033040 | 80 | 161 | 0.0 | 2.0 | 0.00 | 0.84 | 0.84 | 85 | 1012.7 |
| 20260906032538 | 81 | 161 | 0.0 | 2.0 | 0.00 | 0.84 | 0.84 | 85 | 1012.7 |
| 20260906032038 | 81 | 161 | 0.0 | 2.0 | 0.00 | 0.84 | 0.84 | 85 | 1012.7 |
| 20260906031605 | 81 | 161 | 0.0 | 2.0 | 0.00 | 0.84 | 0.84 | 84 | 1012.7 |
| 20260906031038 | 81 | 161 | 0.0 | 2.0 | 0.00 | 0.84 | 0.84 | 84 | 1012.7 |
| 20260906030538 | 81 | 161 | 0.0 | 2.0 | 0.00 | 0.84 | 0.84 | 84 | 1012.6 |
| 20260906030039 | 81 | 161 | 0.0 | 3.0 | 0.00 | 0.84 | 0.84 | 84 | 1012.6 |
| 20260906025537 | 81 | 161 | 0.0 | 3.0 | 0.00 | 0.84 | 0.84 | 84 | 1012.5 |
| 20260906025038 | 81 | 161 | 0.0 | 2.0 | 0.00 | 0.84 | 0.84 | 84 | 1012.4 |
| 20260906024543 | 81 | 157 | 0.0 | 1.0 | 0.00 | 0.84 | 0.84 | 84 | 1012.3 |
| 20260906024037 | 81 | 157 | 0.0 | 2.0 | 0.00 | 0.84 | 0.84 | 83 | 1012.3 |
| 20260906023537 | 81 | 157 | 0.0 | 2.0 | 0.00 | 0.84 | 0.84 | 83 | 1012.2 |
| 20260906023048 | 81 | 157 | 0.0 | 5.0 | 0.00 | 0.84 | 0.84 | 83 | 1012.2 |
| 20260906022539 | 81 | 157 | 1.0 | 5.0 | 0.00 | 0.84 | 0.84 | 83 | 1012.1 |
| 20260906022136 | 81 | 182 | 1.0 | 4.0 | 0.00 | 0.84 | 0.84 | 83 | 1012.0 |
| 20260906021536 | 82 | 183 | 1.0 | 3.0 | 0.00 | 0.84 | 0.84 | 83 | 1011.9 |
| 20260906021037 | 82 | 183 | 1.0 | 4.0 | 0.00 | 0.84 | 0.84 | 83 | 1011.8 |
| 20260906020538 | 82 | 183 | 1.0 | 6.0 | 0.00 | 0.84 | 0.84 | 83 | 1011.8 |
| 20260906020047 | 82 | 188 | 2.0 | 6.0 | 0.00 | 0.84 | 0.84 | 83 | 1011.7 |
| 20260906015535 | 82 | 188 | 1.0 | 5.0 | 0.00 | 0.84 | 0.84 | 83 | 1011.5 |
| 20260906015035 | 82 | 155 | 1.0 | 3.0 | 0.00 | 0.84 | 0.84 | 83 | 1011.5 |
| 20260906014535 | 82 | 155 | 1.0 | 3.0 | 0.00 | 0.84 | 0.84 | 83 | 1011.5 |
| 20260906014035 | 82 | 150 | 0.0 | 2.0 | 0.00 | 0.84 | 0.84 | 83 | 1011.5 |
| 20260906013535 | 82 | 150 | 0.0 | 2.0 | 0.00 | 0.84 | 0.84 | 82 | 1011.5 |
| 20260906013035 | 82 | 150 | 0.0 | 3.0 | 0.00 | 0.84 | 0.84 | 82 | 1011.5 |
| 20260906012534 | 82 | 150 | 1.0 | 5.0 | 0.00 | 0.84 | 0.84 | 82 | 1011.5 |
| 20260906012034 | 82 | 150 | 1.0 | 5.0 | 0.00 | 0.84 | 0.84 | 82 | 1011.4 |
| 20260906011534 | 82 | 55 | 1.0 | 3.0 | 0.00 | 0.84 | 0.84 | 82 | 1011.3 |
| 20260906011033 | 82 | 53 | 1.0 | 3.0 | 0.00 | 0.84 | 0.84 | 82 | 1011.3 |
| 20260906010536 | 82 | 49 | 0.0 | 3.0 | 0.00 | 0.84 | 0.84 | 82 | 1011.3 |
| 20260906010035 | 82 | 49 | 1.0 | 3.0 | 0.00 | 0.84 | 0.84 | 83 | 1011.3 |
| 20260906005533 | 82 | 41 | 1.0 | 2.0 | 0.00 | 0.84 | 0.84 | 84 | 1011.3 |
| 20260906005034 | 83 | 20 | 0.0 | 2.0 | 0.00 | 0.84 | 0.84 | 84 | 1011.3 |
| 20260906004536 | 83 | 20 | 0.0 | 2.0 | 0.00 | 0.84 | 0.84 | 84 | 1011.4 |
| 20260906004033 | 83 | 20 | 0.0 | 3.0 | 0.00 | 0.84 | 0.84 | 85 | 1011.3 |
| 20260906003533 | 83 | 17 | 0.0 | 3.0 | 0.00 | 0.84 | 0.84 | 85 | 1011.3 |
| 20260906003033 | 83 | 123 | 0.0 | 2.0 | 0.00 | 0.84 | 0.84 | 85 | 1011.3 |
| 20260906002532 | 83 | 123 | 0.0 | 2.0 | 0.00 | 0.84 | 0.84 | 85 | 1011.4 |
| 20260906002033 | 83 | 123 | 0.0 | 2.0 | 0.00 | 0.84 | 0.84 | 85 | 1011.5 |
| 20260906001541 | 83 | 123 | 0.0 | 2.0 | 0.00 | 0.84 | 0.84 | 85 | 1011.5 |
| 20260906001032 | 84 | 123 | 0.0 | 1.0 | 0.00 | 0.84 | 0.84 | 85 | 1011.5 |
| 20260906000532 | 84 | 123 | 0.0 | 1.0 | 0.00 | 0.84 | 0.84 | 85 | 1011.5 |
| 20260906000032 | 84 | 123 | 0.0 | 2.0 | 0.00 | 0.84 | 0.84 | 85 | 1011.5 |
| 20260905235534 | 84 | 123 | 0.0 | 2.0 | 0.00 | 0.84 | 0.84 | 85 | 1011.5 |
| 20260905235033 | 83 | 123 | 0.0 | 2.0 | 0.00 | 0.84 | 0.84 | 84 | 1011.5 |